Detalhes do Voo

Voltar

 DETALHES DO VÔO

Piloto: GLD1744 Wesley I. Aeronave: C182 RG II Distância: 192NM
Origem: SBNF Destino: SBGU Duração: 1.70
Validação: Validado Tipo: Charter Matrícula: PT-GLD
ZFW: 2616 Block Fuel/Init FOB 82/44 Combustível em Voo 82
Passageiros: 0 Carga: 0 Alternativo: SSFA
Hora da Decolagem: 0258 Velocidade de Cruzeiro: 0140 Nível de Voo: 6500
Regra Visual: VFR ICAO da Aeronave: C182 Unidade de Peso: Kg
Data: 28/04/2026 Observação: GOLD ACARS Rede: IVAO
Acidentou?: Não Comentários do Validador: Pontuação do Voo 107.184

 ROTA

ROTA DCT 2629S04905W 2615S04931W 2607S04948W 2552S05023W 2538S05041W 2534S05104W
REMARKS OPR/GOLD VIRTUAL AIRLINES PER/A RMK/FROM SBNF RMK/PIC GLD1744/F065 RMK/EM TREINAMENTO VFR

 PENALIDADES DO VOO

Para entender como cada item é pontuado, consulte as regras de avaliação.

Nenhuma penalidade registrada para este voo.

 ANÁLISE DO POUSO

Vento durante o pouso: 94º/2 kt Proa durante o pouso: 63
V/S do Pouso: -122 ft/min IAS do Pouso: 63 kt
Força G no pouso: 1.0272 G Bank no pouso: -0.63
Pitch no Pouso 4.22 Flaps no Pouso 66
Nav Lights ON Landing Lights ON
Beacon Lights ON Strobe Lights ON

 MAPA DO VOO

 PERFIL VERTICAL DO VOO

 EVENTOS PRINCIPAIS DO VOO

DATAEVENTOIASALTITUDE
2026-04-28 02:58:11 GOLD ACARS VERSION 3.3.6.900
2026-04-28 02:58:11 BOARDING1-48
2026-04-28 02:58:41 BCN LIGHTS ON0-48
2026-04-28 02:58:49 STARTING ENGINE 10-48
2026-04-28 02:59:04 NAV LIGHTS ON0-48
2026-04-28 03:00:24 TAXI LIGHTS ON1-48
2026-04-28 03:01:19 TAXI TO THE RWY425
2026-04-28 03:03:00 LND LIGHTS ON031
2026-04-28 03:03:03 STB LIGHTS ON031
2026-04-28 03:03:18 FLAP 33%535
2026-04-28 03:04:49 TAXI LIGHTS OFF135
2026-04-28 03:05:35 CLIMBING9591
2026-04-28 03:05:48 FLAP 0%102208
2026-04-28 03:06:22 AP ENGAGED109661
2026-04-28 03:06:24 CRUISE110668
2026-04-28 03:06:26 CLIMBING112680
2026-04-28 03:06:53 GEAR UP1051038
2026-04-28 03:12:27 CRUISE946487
2026-04-28 04:15:15 DESCEND1186544
2026-04-28 04:33:32 FLAP 33%924689
2026-04-28 04:34:13 GEAR DOWN844684
2026-04-28 04:34:39 AP DISENGAGED794691
2026-04-28 04:34:57 CLIMBING804680
2026-04-28 04:35:04 CRUISE744738
2026-04-28 04:35:07 LANDING744737
2026-04-28 04:36:05 FLAP 66%874410
2026-04-28 04:37:20 LANDED AIRPORT [SBGU]633500
2026-04-28 04:37:20 LANDED - VS: -122 ft/min623498
2026-04-28 04:37:40 TAXI TO THE GATE293491
2026-04-28 04:37:41 FLAP 0%293491
2026-04-28 04:38:31 TAXI LIGHTS ON83492
2026-04-28 04:38:36 STB LIGHTS OFF93493
2026-04-28 04:39:16 AT THE GATE03493
2026-04-28 04:39:19 STOPPING ENGINE 103493
2026-04-28 04:39:28 TAXI LIGHTS OFF03493
2026-04-28 04:39:29 NAV LIGHTS OFF03493
2026-04-28 04:39:36 BCN LIGHTS OFF03493
2026-04-28 04:39:59 LANDED NOT IN THE PLANNED AIRPORT [SSGG] - [lat: -25,3875620253743] - [long: -51,518503955673]03493
2026-04-28 04:39:59 FLIGHT FINISHED03493

 DADOS DO ACARS

DATA IAS GS ALTITUDE COMBUSTÍVEL USADO OAT FASE DO VOO
2026-04-28 03:00:11 1 0 -48 0 21 BOARDING
2026-04-28 03:01:11 1 0 -48 0 21 BOARDING
2026-04-28 03:02:11 0 0 31 0 21 BOARDING
2026-04-28 03:03:12 3 8 33 0 21 TAXI TO THE RWY
2026-04-28 03:04:12 24 24 35 0 21 TAXI TO THE RWY
2026-04-28 03:05:12 49 50 35 0 21 TAXI TO THE RWY
2026-04-28 03:06:12 113 114 480 1 19 TAXI TO THE RWY
2026-04-28 03:07:12 111 121 1320 2 17 CLIMBING
2026-04-28 03:08:12 115 128 2335 3 14 CLIMBING
2026-04-28 03:09:13 120 130 3339 4 12 CLIMBING
2026-04-28 03:10:13 118 121 4316 5 11 CLIMBING
2026-04-28 03:11:13 108 108 5299 6 11 CLIMBING
2026-04-28 03:12:13 96 93 6266 6 10 CLIMBING
2026-04-28 03:13:13 126 127 6511 7 10 CLIMBING
2026-04-28 03:14:13 132 133 6505 8 10 CRUISE
2026-04-28 03:15:13 118 118 6493 8 10 CRUISE
2026-04-28 03:16:13 118 118 6494 8 10 CRUISE
2026-04-28 03:17:13 118 118 6492 9 10 CRUISE
2026-04-28 03:18:13 120 121 6495 9 10 CRUISE
2026-04-28 03:19:16 118 120 6494 9 10 CRUISE
2026-04-28 03:20:16 118 120 6493 10 10 CRUISE
2026-04-28 03:21:16 115 116 6498 10 10 CRUISE
2026-04-28 03:22:16 117 118 6499 11 11 CRUISE
2026-04-28 03:23:16 118 119 6496 11 11 CRUISE
2026-04-28 03:24:16 117 122 6494 11 11 CRUISE
2026-04-28 03:25:16 118 122 6497 12 11 CRUISE
2026-04-28 03:26:16 118 122 6496 12 11 CRUISE
2026-04-28 03:27:16 117 122 6494 12 11 CRUISE
2026-04-28 03:28:16 119 124 6497 13 11 CRUISE
2026-04-28 03:29:17 119 124 6497 13 11 CRUISE
2026-04-28 03:30:17 121 126 6502 13 11 CRUISE
2026-04-28 03:31:17 117 124 6493 14 11 CRUISE
2026-04-28 03:32:17 119 123 6500 14 11 CRUISE
2026-04-28 03:33:17 119 125 6504 15 11 CRUISE
2026-04-28 03:34:17 119 125 6504 15 11 CRUISE
2026-04-28 03:35:17 119 124 6505 15 11 CRUISE
2026-04-28 03:36:17 119 124 6503 16 11 CRUISE
2026-04-28 03:37:17 119 126 6494 16 11 CRUISE
2026-04-28 03:38:17 119 125 6494 16 11 CRUISE
2026-04-28 03:39:17 122 129 6498 17 11 CRUISE
2026-04-28 03:40:17 121 129 6498 17 11 CRUISE
2026-04-28 03:41:17 121 129 6499 18 11 CRUISE
2026-04-28 03:42:17 122 130 6499 18 11 CRUISE
2026-04-28 03:43:17 122 131 6501 19 11 CRUISE
2026-04-28 03:44:17 123 132 6502 19 11 CRUISE
2026-04-28 03:45:18 124 133 6505 19 11 CRUISE
2026-04-28 03:46:18 124 133 6502 20 11 CRUISE
2026-04-28 03:47:18 122 132 6502 20 11 CRUISE
2026-04-28 03:48:18 123 132 6501 21 11 CRUISE
2026-04-28 03:49:18 123 132 6500 21 11 CRUISE
2026-04-28 03:50:18 122 132 6501 21 11 CRUISE
2026-04-28 03:51:18 122 131 6500 22 11 CRUISE
2026-04-28 03:52:18 122 131 6499 22 11 CRUISE
2026-04-28 03:53:18 122 132 6499 23 11 CRUISE
2026-04-28 03:54:19 121 131 6496 23 11 CRUISE
2026-04-28 03:55:19 122 132 6499 23 11 CRUISE
2026-04-28 03:56:19 125 135 6502 24 11 CRUISE
2026-04-28 03:57:19 125 136 6504 24 11 CRUISE
2026-04-28 03:58:19 121 131 6497 25 11 CRUISE
2026-04-28 03:59:19 120 131 6493 25 11 CRUISE
2026-04-28 04:00:19 119 128 6486 25 11 CRUISE
2026-04-28 04:01:19 119 126 6493 26 11 CRUISE
2026-04-28 04:02:19 119 127 6492 26 11 CRUISE
2026-04-28 04:03:19 119 127 6494 26 11 CRUISE
2026-04-28 04:04:19 120 128 6498 27 11 CRUISE
2026-04-28 04:05:20 119 127 6497 27 11 CRUISE
2026-04-28 04:06:20 118 126 6496 28 11 CRUISE
2026-04-28 04:07:20 118 127 6495 28 11 CRUISE
2026-04-28 04:08:20 118 126 6495 28 11 CRUISE
2026-04-28 04:09:20 119 127 6489 29 11 CRUISE
2026-04-28 04:10:20 121 129 6501 29 11 CRUISE
2026-04-28 04:11:20 119 134 6498 29 11 CRUISE
2026-04-28 04:12:20 118 134 6493 30 11 CRUISE
2026-04-28 04:13:20 119 134 6499 30 11 CRUISE
2026-04-28 04:14:20 120 136 6499 30 11 CRUISE
2026-04-28 04:15:20 121 137 6513 31 11 CRUISE
2026-04-28 04:16:23 120 136 6506 31 11 DESCEND
2026-04-28 04:17:23 121 136 6503 32 11 DESCEND
2026-04-28 04:18:23 118 131 6498 32 11 DESCEND
2026-04-28 04:19:23 119 128 6494 32 11 DESCEND
2026-04-28 04:20:23 120 126 6500 33 11 DESCEND
2026-04-28 04:21:23 122 133 6497 33 11 DESCEND
2026-04-28 04:22:23 119 130 6496 33 11 DESCEND
2026-04-28 04:23:23 119 130 6493 34 11 DESCEND
2026-04-28 04:24:23 118 129 6494 34 11 DESCEND
2026-04-28 04:25:23 119 129 6495 35 11 DESCEND
2026-04-28 04:26:24 122 133 6502 35 11 DESCEND
2026-04-28 04:27:24 120 130 6500 35 11 DESCEND
2026-04-28 04:28:24 120 130 6499 36 11 DESCEND
2026-04-28 04:29:24 106 114 6261 36 11 DESCEND
2026-04-28 04:30:24 109 119 5793 36 12 DESCEND
2026-04-28 04:31:24 110 123 5299 36 13 DESCEND
2026-04-28 04:32:24 114 130 4817 36 14 DESCEND
2026-04-28 04:33:24 94 106 4688 37 14 DESCEND
2026-04-28 04:34:24 81 98 4688 37 14 DESCEND
2026-04-28 04:35:24 84 94 4640 37 14 DESCEND
2026-04-28 04:36:24 81 79 4166 37 14 LANDING
2026-04-28 04:37:24 58 59 3492 37 13 LANDING
2026-04-28 04:38:25 8 7 3493 37 13 LANDED - VS: -122 ft/min
2026-04-28 04:39:25 0 0 3493 37 13 TAXI TO THE GATE